User: anonymous   Login
Location: ?????????
(42.1392°N, 44.1931°E)
Time: 16:17:23
(UTC+00:00)
Language:

Okean 3 Rocket - Orbit

View from above orbital plane
View from above orbital plane
View from above satellite
View from above satellite

Ground track
Ground track

The orbit data is extracted from the following two-line orbital elements,

1 21398U 91039B   20225.13217826  .00000063  00000-0  52081-5 0  9996
2 21398  82.5205 233.7633 0021664  10.8937 349.2740 14.79768662574259
Epoch (UTC): 12 August 2020 03:10:20
Eccentricity: 0.0021664
inclination: 82.5205°
perigee height: 615 km
apogee height: 645 km
right ascension of ascending node: 233.7633°
argument of perigee: 10.8937°
revolutions per day: 14.79768662
mean anomaly at epoch: 349.2740°
orbit number at epoch: 57425

The dashed part of the orbit path shows where the satellite is in the earth's shadow,  

DLR